Location: Unspecified
(51.0000°N, 12.0000°E)
Time: 18:34:13
(UTC+01:00)

ISS - Pass Details

Date: 16 November 2017
Orbit: 402 x 407 km, 51.6° (Epoch: 20 November)

Event Time Altitude Azimuth Distance (km) Brightness Sun altitude
Exits shadow 05:38:16 19° 207° (SSW) 1,017 -2.0 -17.3°
Drops below altitude 10° 05:40:21 10° 168° (SSE) 1,450 -0.8 -17.0°
Sets 05:42:46 0° 150° (SSE) 2,305 0.6 -16.7°
